Date,TemperatureHighF,TemperatureAvgF,TemperatureLowF,DewpointHighF,DewpointAvgF,DewpointLowF,HumidityHigh,HumidityAvg,HumidityLow,PressureMaxIn,PressureMinIn,WindSpeedMaxMPH,WindSpeedAvgMPH,GustSpeedMaxMPH,PrecipitationSumIn
2013-1-1,21.8,15.7,8.1,11.9,8.7,5.0,88,74,60,30.19,30.09,7,2,9,0.00
2013-1-2,27.7,15.8,4.7,20.1,11.2,1.8,91,82,70,30.13,30.02,12,6,15,0.00
2013-1-3,31.6,25.2,12.1,27.1,20.9,9.0,91,84,69,30.25,30.04,7,3,10,0.00
2013-1-4,34.3,21.7,7.7,26.0,17.0,4.4,90,82,69,30.24,30.15,12,6,14,0.00
2013-1-5,36.3,29.6,19.6,33.9,26.9,16.9,94,89,81,30.16,29.90,14,8,17,0.00
2013-1-6,36.4,25.9,19.7,33.4,21.8,16.3,91,84,73,30.25,29.88,11,5,13,0.00
2013-1-7,39.9,28.5,18.1,32.1,24.7,15.9,92,86,70,30.24,30.02,18,10,20,0.00
2013-1-8,44.5,34.2,26.1,37.3,30.1,23.8,92,85,73,30.06,29.96,15,8,18,0.00
2013-1-9,48.9,39.8,33.1,37.6,32.4,28.4,90,76,49,30.41,29.98,10,4,14,0.00
2013-1-10,50.6,40.0,31.8,49.8,35.6,26.5,97,85,63,30.39,29.70,15,8,17,0.57
2013-1-11,56.8,51.2,46.7,52.5,49.3,45.9,97,93,84,29.72,29.58,20,12,25,0.31
2013-1-12,52.3,39.7,25.1,48.9,35.5,22.8,93,85,75,29.91,29.64,13,6,17,0.00
2013-1-13,25.1,19.0,13.2,23.1,15.0,9.3,93,84,77,30.20,29.83,8,5,15,0.00
2013-1-14,26.3,17.2,10.9,16.7,12.1,8.3,90,81,60,30.38,30.20,4,2,7,0.00
2013-1-15,29.9,21.1,13.9,20.8,15.2,10.1,87,78,59,30.33,30.03,6,2,7,0.00
2013-1-16,37.5,28.0,14.9,30.4,21.4,11.4,87,77,61,30.04,29.81,17,7,21,0.00
2013-1-17,35.1,29.1,22.2,30.2,22.7,15.9,92,78,52,30.34,29.99,8,3,16,0.00
2013-1-18,45.9,33.7,22.2,35.4,26.9,17.6,88,76,63,30.35,29.90,22,11,26,0.00
2013-1-19,52.3,42.8,30.1,41.3,34.2,21.2,86,72,62,30.00,29.72,16,9,22,0.00
2013-1-20,29.9,19.0,15.2,19.7,11.3,7.6,85,72,56,30.24,30.00,13,5,14,0.00
2013-1-21,15.6,9.1,4.2,10.8,1.0,-5.2,82,70,51,30.25,30.14,12,6,18,0.00
2013-1-22,14.8,8.4,1.5,3.5,-1.1,-5.9,80,65,50,30.34,30.24,7,4,9,0.00
2013-1-23,34.2,23.2,15.0,19.5,12.3,5.6,72,63,50,30.27,30.01,12,7,17,0.00
2013-1-24,22.4,16.3,7.0,11.6,5.3,-1.4,81,62,48,30.53,30.18,12,7,13,0.00
2013-1-25,37.8,27.2,20.3,22.1,16.8,9.5,80,65,49,30.18,29.92,11,6,13,0.00
2013-1-26,31.8,22.4,11.9,18.8,12.2,7.2,82,66,47,30.31,30.13,9,4,10,0.00
2013-1-27,42.9,32.6,26.8,42.1,28.3,18.7,97,85,69,30.25,29.80,20,12,24,0.13
2013-1-28,55.3,49.7,42.9,54.6,48.9,42.1,98,97,97,29.85,29.68,15,6,17,0.06
2013-1-29,64.7,56.3,46.0,62.0,55.3,45.2,98,96,90,29.68,29.31,18,8,20,1.92
2013-1-30,44.4,31.4,18.2,43.6,29.6,14.1,98,93,81,29.70,29.18,14,7,22,0.34
2013-1-31,22.4,13.8,5.3,18.8,8.5,-0.4,87,79,69,30.19,29.70,11,7,18,0.00
2013-2-1,20.8,10.7,1.5,18.8,4.4,-3.2,92,76,65,30.33,30.07,13,7,16,0.00
2013-2-2,28.2,22.0,16.8,24.9,18.0,11.3,93,85,75,30.07,29.93,12,6,16,0.00
2013-2-3,29.1,23.4,17.2,22.1,18.1,14.5,95,81,61,30.01,29.87,10,5,17,0.00
2013-2-4,36.2,28.0,20.3,28.2,23.1,18.0,91,82,69,29.89,29.69,16,6,16,0.00
2013-2-5,41.2,30.6,18.4,33.9,26.5,16.2,92,85,72,30.01,29.74,13,5,16,0.00
2013-2-6,44.5,35.2,24.8,35.9,30.8,23.3,96,84,70,30.12,29.95,16,6,20,0.00
2013-2-7,37.2,35.8,34.5,36.3,34.2,32.4,97,94,87,29.97,29.76,15,6,16,0.54
2013-2-8,34.5,28.6,26.2,32.7,25.3,22.4,94,87,83,30.28,29.93,8,4,13,0.00
2013-2-9,35.7,31.4,27.3,32.2,28.0,24.3,90,87,84,30.28,29.92,17,11,19,0.00
2013-2-10,49.7,42.2,35.2,47.7,39.9,32.2,97,92,66,29.94,29.40,22,16,27,0.37
2013-2-11,41.3,34.2,28.1,33.7,27.2,24.2,85,75,67,30.02,29.52,18,9,26,0.00
2013-2-12,39.4,30.7,23.2,30.4,25.9,21.2,94,83,64,30.05,29.83,5,2,7,0.00
2013-2-13,46.3,35.3,25.2,36.4,30.2,23.7,94,82,64,29.83,29.67,7,4,11,0.00
2013-2-14,40.7,37.0,32.7,33.7,32.0,29.9,91,82,73,29.93,29.62,9,5,15,0.00
2013-2-15,34.0,27.9,21.3,31.1,18.9,14.0,91,70,47,30.14,29.93,10,6,13,0.00
2013-2-16,28.1,20.7,13.4,17.1,12.6,8.2,83,71,56,30.13,30.04,9,5,15,0.00
2013-2-17,37.2,25.4,12.3,25.6,17.7,8.6,85,73,56,30.10,29.81,18,9,22,0.00
2013-2-18,53.0,38.8,24.3,47.9,33.7,19.3,96,82,69,29.80,29.37,22,14,28,0.40
2013-2-19,24.2,18.7,13.5,20.1,12.7,7.6,86,77,69,30.16,29.69,12,8,22,0.00
2013-2-20,23.0,14.4,5.5,14.9,8.4,0.5,86,77,65,30.31,30.17,8,4,14,0.00
2013-2-21,29.0,23.2,15.4,26.1,19.9,12.5,95,87,80,30.25,29.77,22,11,24,0.00
2013-2-22,32.0,29.1,25.9,31.0,26.6,22.1,96,90,82,29.89,29.67,16,8,18,0.00
2013-2-23,30.5,25.0,21.0,22.9,20.0,17.2,87,81,72,29.91,29.86,6,3,11,0.00
2013-2-24,35.9,27.1,15.8,28.4,22.2,12.6,92,82,68,30.02,29.90,7,3,8,0.01
2013-2-25,43.6,35.2,27.0,35.5,29.9,24.1,90,81,69,30.02,29.74,15,7,21,0.00
2013-2-26,36.0,33.2,31.8,32.4,31.1,29.1,97,92,77,29.74,29.38,23,12,31,0.11
2013-2-27,32.5,31.4,29.8,31.4,30.3,28.8,97,96,93,29.71,29.48,6,4,10,0.08
2013-2-28,34.7,32.7,31.3,33.2,31.4,30.0,96,95,90,29.98,29.70,7,4,11,0.01
2013-3-1,31.7,27.6,24.7,30.7,24.0,20.8,96,86,80,30.12,29.97,10,6,12,0.00
2013-3-2,28.6,23.9,16.7,20.9,16.5,12.3,85,74,56,30.14,30.09,8,4,12,0.00
2013-3-3,33.8,23.5,12.7,21.0,15.1,10.2,91,72,44,30.10,29.97,8,2,9,0.00
2013-3-4,36.1,31.7,26.4,30.1,26.0,17.7,92,80,69,29.99,29.78,20,12,21,0.00
2013-3-5,34.4,31.0,27.7,31.7,28.9,25.2,96,92,84,29.98,29.74,12,7,16,0.00
2013-3-6,29.4,26.8,23.4,25.5,23.1,20.6,90,86,80,30.25,29.99,10,6,12,0.00
2013-3-7,35.1,29.1,24.9,28.3,24.7,22.0,89,84,74,30.32,30.24,7,3,11,0.00
2013-3-8,41.9,34.0,25.5,36.0,29.9,23.2,92,85,77,30.34,30.14,15,7,17,0.00
2013-3-9,49.2,41.5,35.9,43.5,37.7,32.5,96,87,78,30.15,29.68,17,12,20,0.32
2013-3-10,51.4,47.8,43.2,50.6,46.7,41.5,97,96,86,29.76,29.57,20,7,22,0.91
2013-3-11,46.1,35.7,30.4,45.3,34.1,27.0,97,94,86,29.92,29.62,13,8,17,0.01
2013-3-12,37.7,30.8,25.9,32.7,26.5,20.8,93,84,74,30.14,29.92,12,6,16,0.00
2013-3-13,36.3,28.2,22.3,24.5,20.2,17.2,87,73,48,30.38,30.13,10,6,17,0.00
2013-3-14,43.6,33.3,23.6,35.8,28.1,20.5,91,82,65,30.37,30.08,18,7,21,0.00
2013-3-15,52.4,41.9,30.6,44.4,37.0,28.8,94,83,68,30.08,29.67,8,4,9,0.00
2013-3-16,46.5,36.6,31.3,42.8,32.7,27.5,96,86,72,30.12,29.65,8,5,12,0.00
2013-3-17,36.5,32.8,29.7,30.1,27.2,23.5,86,80,72,30.17,29.91,15,10,18,0.00
2013-3-18,40.0,32.6,25.7,35.8,28.9,17.5,95,86,69,29.94,29.69,13,8,20,0.00
2013-3-19,40.1,28.9,19.9,20.6,16.5,11.7,76,61,38,30.16,29.92,9,6,16,0.00
2013-3-20,29.1,23.6,16.5,21.4,12.2,6.2,79,62,44,30.21,30.09,12,8,21,0.00
2013-3-21,35.8,24.3,11.6,16.1,12.0,7.7,85,61,40,30.11,30.01,7,2,9,0.00
2013-3-22,40.2,32.8,23.8,24.1,19.1,13.6,75,58,41,30.07,30.01,7,2,10,0.00
2013-3-23,46.9,38.5,31.0,28.3,25.4,23.2,75,60,42,30.10,29.97,13,6,15,0.00
2013-3-24,33.6,30.7,29.4,31.2,29.0,25.1,96,93,71,29.99,29.65,13,6,16,0.00
2013-3-25,36.6,31.2,27.3,28.8,27.1,24.4,96,85,71,30.14,29.77,9,5,17,0.03
2013-3-26,38.1,33.9,29.6,29.2,27.4,25.5,85,77,62,30.31,30.14,8,4,12,0.00
2013-3-27,43.2,36.1,28.1,30.5,26.8,22.8,89,70,51,30.38,30.31,6,2,6,0.00
2013-3-28,49.6,38.8,25.7,37.6,29.6,22.1,87,70,52,30.38,30.28,8,2,10,0.00
2013-3-29,59.2,47.2,36.4,38.1,33.1,30.6,83,60,38,30.31,30.21,6,3,8,0.00
2013-3-30,55.9,47.8,36.4,45.0,40.1,32.4,88,75,61,30.23,29.89,20,9,25,0.00
2013-3-31,60.5,50.5,39.3,47.3,39.7,28.1,94,69,40,29.97,29.81,10,6,18,0.00
2013-4-1,42.5,35.6,28.7,28.2,21.8,16.4,83,59,36,30.24,29.97,9,6,14,0.00
2013-4-2,46.7,34.5,21.9,23.3,19.0,11.9,85,57,25,30.34,30.24,9,3,13,0.00
2013-4-3,50.2,38.2,26.2,22.4,19.5,16.2,74,49,27,30.45,30.30,10,5,14,0.00
2013-4-4,60.0,46.6,34.9,28.0,24.3,20.7,66,43,25,30.30,30.01,8,3,9,0.00
2013-4-5,59.4,48.2,36.8,35.6,30.1,24.1,84,53,29,30.22,30.04,12,5,15,0.00
2013-4-6,70.6,55.7,42.7,52.1,37.0,25.1,78,51,32,30.07,29.65,23,13,26,0.03
2013-4-7,69.6,56.2,39.7,46.8,43.5,38.1,94,65,40,29.96,29.74,11,3,12,0.00
2013-4-8,73.3,63.6,56.8,60.2,56.2,43.5,94,78,58,29.89,29.61,20,8,21,0.39
2013-4-9,77.7,68.0,60.3,64.2,60.3,54.8,90,77,57,29.90,29.81,19,9,23,0.00
2013-4-10,59.2,46.2,41.5,53.7,44.5,39.9,97,94,82,29.93,29.70,19,10,22,2.06
2013-4-11,50.2,45.0,37.8,46.9,42.3,32.6,97,91,80,29.71,29.62,22,8,24,0.07
2013-4-12,44.2,39.5,37.2,37.5,35.0,32.5,93,84,70,29.93,29.64,12,7,17,0.00
2013-4-13,51.9,43.6,35.2,38.8,33.4,25.8,87,68,51,30.01,29.92,8,5,14,0.00
2013-4-14,74.0,59.8,46.0,55.3,47.4,37.6,83,65,43,29.95,29.60,26,14,30,0.00
2013-4-15,63.8,54.3,44.7,56.0,50.6,41.1,97,88,68,30.02,29.68,22,6,27,0.47
2013-4-16,52.0,46.7,41.3,44.5,39.8,37.1,95,78,58,30.21,29.96,11,4,12,0.29
2013-4-17,58.3,49.0,44.4,57.5,45.5,36.5,97,88,70,30.23,29.69,19,11,20,3.62
2013-4-18,62.3,53.2,38.6,61.1,51.5,33.1,97,94,80,29.73,29.46,22,11,24,2.19
2013-4-19,41.2,37.9,34.9,34.8,31.9,29.9,88,79,70,30.03,29.63,13,8,16,0.00
2013-4-20,49.6,39.7,30.2,32.1,28.7,25.5,87,67,41,30.38,30.04,6,3,12,0.00
2013-4-21,57.3,46.8,37.5,44.9,36.8,30.7,79,68,57,30.46,30.28,18,12,21,0.00
2013-4-22,67.7,56.1,43.7,49.9,42.1,36.5,80,61,37,30.30,30.02,15,9,23,0.00
2013-4-23,56.4,45.4,38.1,50.9,43.4,36.8,95,93,80,30.06,29.93,9,4,15,0.98
2013-4-24,50.6,42.4,36.0,37.1,34.4,31.1,95,75,53,30.18,29.99,11,5,14,0.03
2013-4-25,56.7,47.6,39.6,36.4,32.9,25.8,84,58,38,30.33,30.14,12,6,19,0.00
2013-4-26,62.8,52.7,41.8,50.8,43.0,33.3,89,70,60,30.34,30.26,17,10,20,0.00
2013-4-27,62.0,53.6,45.6,52.7,48.1,44.0,96,83,56,30.30,29.99,12,5,16,0.00
2013-4-28,68.3,57.8,52.2,55.7,52.7,50.7,97,84,60,29.99,29.85,10,4,13,0.00
2013-4-29,76.0,62.0,46.5,62.7,55.3,45.4,96,80,59,29.93,29.75,20,11,26,0.00
2013-4-30,86.0,71.9,59.9,64.8,59.3,53.1,94,68,33,29.96,29.76,18,12,23,0.00
2013-5-1,83.5,72.6,59.7,60.9,56.3,50.3,88,60,33,30.12,29.96,15,7,20,0.00
2013-5-2,70.1,60.1,45.5,58.5,52.7,43.6,95,77,65,30.19,30.10,11,5,14,0.12
2013-5-3,61.1,50.0,43.8,60.0,48.8,42.5,97,96,93,30.12,29.83,16,6,21,1.31
2013-5-4,63.5,58.4,53.9,59.1,56.1,52.2,96,92,78,30.05,29.86,14,7,15,0.11
2013-5-5,72.4,60.9,53.0,60.1,53.7,47.3,97,79,42,30.04,29.92,14,5,17,0.01
2013-5-6,75.9,65.8,55.4,54.4,48.0,38.2,89,57,31,30.04,29.96,10,4,15,0.00
2013-5-7,81.2,67.9,53.5,49.3,41.6,35.7,70,41,22,30.07,29.99,6,2,8,0.00
2013-5-8,82.2,70.3,58.6,58.2,50.2,41.3,77,52,29,30.06,29.98,7,2,10,0.00
2013-5-9,70.3,63.7,60.3,63.4,60.5,57.2,97,90,71,30.00,29.83,21,6,25,0.25
2013-5-10,62.4,54.5,50.0,60.9,52.2,47.8,96,92,86,30.01,29.82,9,3,10,0.00
2013-5-11,60.4,52.9,44.1,53.0,40.0,29.3,97,66,32,30.13,29.94,12,5,18,0.00
2013-5-12,58.2,48.1,37.6,33.9,30.4,24.8,78,53,32,30.20,30.12,7,3,15,0.00
2013-5-13,70.1,56.8,39.7,44.4,36.3,30.8,81,49,28,30.21,30.02,9,3,14,0.00
2013-5-14,89.4,72.0,53.9,66.7,55.8,43.4,79,58,42,30.01,29.71,13,10,17,0.00
2013-5-15,85.6,77.0,71.5,61.9,57.6,52.2,65,52,35,29.88,29.76,12,4,25,0.00
2013-5-16,84.7,73.0,61.3,65.3,58.8,51.5,89,63,36,29.97,29.87,12,4,13,0.12
2013-5-17,79.9,70.0,60.7,68.4,61.9,57.9,93,77,49,30.02,29.94,11,4,14,0.11
2013-5-18,81.7,71.5,63.7,67.9,64.7,62.2,96,81,55,30.04,29.92,8,4,11,0.00
2013-5-19,90.0,77.0,64.6,72.4,68.3,62.5,94,76,53,29.95,29.73,19,9,25,0.00
2013-5-20,83.2,72.7,61.9,70.3,64.1,60.7,97,76,52,29.88,29.71,21,12,24,1.16
2013-5-21,79.6,70.8,62.5,68.1,64.2,60.7,97,81,59,29.75,29.68,18,9,19,0.00
2013-5-22,71.6,65.4,59.5,62.8,58.9,56.2,94,80,61,29.83,29.66,11,3,15,0.10
2013-5-23,62.2,58.0,51.8,56.9,53.6,48.1,96,86,70,30.28,29.83,10,4,13,0.01
2013-5-24,67.2,54.8,41.6,48.2,42.1,37.3,94,65,37,30.46,30.28,8,4,10,0.00
2013-5-25,55.0,51.5,48.1,50.4,44.7,37.9,94,79,58,30.43,30.24,12,6,15,0.32
2013-5-26,63.5,56.6,50.6,60.2,54.2,48.7,96,92,86,30.28,30.03,20,8,28,1.01
2013-5-27,68.7,63.3,57.7,66.4,61.9,56.7,98,96,91,30.07,29.81,16,6,20,0.84
2013-5-28,76.1,70.0,64.5,71.9,66.9,62.8,97,90,79,29.94,29.75,22,11,26,0.38
2013-5-29,83.9,73.4,61.6,72.9,67.3,60.7,97,82,62,29.99,29.84,16,10,20,0.32
2013-5-30,82.4,72.5,62.8,73.1,67.2,60.7,96,84,62,29.91,29.75,26,13,31,1.07
2013-5-31,73.7,68.2,63.3,72.0,66.0,62.0,97,93,84,29.90,29.72,19,9,19,0.25
2013-6-1,74.2,67.2,62.3,69.6,63.7,59.3,96,89,64,29.84,29.71,16,8,22,0.40
2013-6-2,62.3,60.0,56.3,59.7,55.6,51.4,95,85,77,30.07,29.83,6,3,8,0.00
2013-6-3,66.9,58.9,50.2,52.9,49.8,45.0,96,73,55,30.15,30.03,7,3,15,0.00
2013-6-4,72.6,64.0,53.3,58.3,53.2,47.7,85,69,52,30.15,30.04,11,5,12,0.00
2013-6-5,77.5,67.9,57.3,62.6,58.5,54.4,90,73,52,30.07,29.90,6,3,8,0.00
2013-6-6,72.6,63.8,57.7,63.4,58.5,54.2,93,83,66,29.92,29.87,8,3,11,0.01
2013-6-7,74.0,64.2,54.6,57.9,54.8,50.9,88,72,55,29.95,29.91,7,3,10,0.00
2013-6-8,77.4,67.0,54.9,58.3,53.0,44.6,85,62,44,30.00,29.94,6,3,9,0.00
2013-6-9,80.5,69.2,62.0,66.0,61.1,57.4,92,76,51,29.98,29.80,16,7,23,0.04
2013-6-10,79.5,69.1,60.5,65.4,62.1,59.4,97,80,58,29.92,29.77,4,1,7,0.00
2013-6-11,87.0,74.9,61.8,74.7,67.2,59.6,93,78,59,29.97,29.83,12,4,15,0.00
2013-6-12,93.1,83.6,73.2,76.8,73.2,69.8,90,72,54,29.91,29.64,16,8,20,0.00
2013-6-13,82.5,74.3,66.5,71.8,60.4,54.9,95,64,40,30.02,29.72,8,4,14,0.00
2013-6-14,79.3,70.1,59.5,61.9,58.2,54.1,83,67,49,30.15,29.99,10,3,13,0.00
2013-6-15,77.5,71.2,67.1,71.1,65.7,59.5,95,83,69,30.09,29.91,14,6,18,1.15
2013-6-16,83.4,73.2,65.1,72.2,68.1,63.5,96,85,67,30.00,29.92,10,2,11,0.00
2013-6-17,85.6,76.3,66.3,71.0,66.1,57.7,96,73,40,29.99,29.91,8,1,4,0.00
2013-6-18,79.6,72.2,65.5,66.3,63.3,57.0,95,75,58,30.06,29.91,8,5,11,0.00
2013-6-19,84.2,70.9,57.2,64.0,57.9,51.3,84,65,43,30.13,30.05,7,3,10,0.00
2013-6-20,89.7,78.6,65.5,69.2,63.8,59.3,91,63,40,30.15,30.06,9,5,13,0.00
2013-6-21,88.4,76.6,69.0,75.6,69.2,64.6,94,78,61,30.13,29.98,16,8,18,0.20
2013-6-22,84.2,76.7,69.0,76.7,71.6,64.9,92,85,74,30.09,29.99,17,6,19,0.00
2013-6-23,88.1,73.8,67.5,75.6,68.7,65.2,94,85,60,30.07,29.92,13,6,17,0.00
2013-6-24,86.2,72.4,67.0,76.4,68.8,64.9,95,89,64,30.14,29.89,11,4,17,0.37
2013-6-25,85.0,76.4,69.5,77.4,72.5,67.6,96,88,73,29.96,29.83,13,7,17,0.76
2013-6-26,86.9,76.3,66.9,77.6,72.3,65.5,96,88,71,29.87,29.75,11,4,17,0.35
2013-6-27,88.9,79.3,72.5,74.8,71.9,67.9,97,79,56,29.88,29.79,6,2,10,0.00
2013-6-28,84.1,75.6,66.3,68.0,63.9,59.6,93,69,45,29.84,29.69,8,3,15,0.00
2013-6-29,72.9,67.9,63.9,66.6,63.7,60.5,94,86,77,29.80,29.66,8,3,11,0.05
2013-6-30,78.6,68.3,60.8,65.6,60.7,52.3,93,78,55,30.01,29.80,10,4,13,0.00
2013-7-1,77.7,68.5,58.7,57.0,53.4,49.9,80,60,43,30.07,29.99,10,6,15,0.00
2013-7-2,74.2,66.9,59.0,59.3,55.6,51.8,83,68,48,30.09,30.04,9,5,15,0.00
2013-7-3,80.3,68.5,57.4,59.5,56.5,51.8,93,68,41,30.10,30.04,4,1,7,0.00
2013-7-4,84.5,73.5,62.6,67.8,63.0,58.2,92,71,48,30.11,30.04,7,3,10,0.00
2013-7-5,84.3,74.8,64.0,69.9,64.1,60.0,95,72,45,30.10,30.03,7,3,11,0.00
2013-7-6,84.7,74.0,65.2,71.3,67.4,63.2,96,81,56,30.08,29.99,6,3,9,0.00
2013-7-7,88.3,78.1,68.1,75.0,70.3,64.7,91,78,56,30.05,29.98,10,5,14,0.00
2013-7-8,84.8,78.0,72.3,77.4,73.3,69.5,95,86,74,30.08,30.00,11,4,14,0.85
2013-7-9,87.6,81.1,75.9,80.6,76.8,74.4,95,87,71,30.04,29.91,7,3,8,0.00
2013-7-10,87.4,79.9,69.2,76.2,70.8,62.5,92,75,54,30.05,29.87,6,3,12,0.00
2013-7-11,79.7,72.3,65.9,62.7,60.1,56.7,86,67,46,30.11,30.05,6,2,9,0.00
2013-7-12,84.1,73.2,61.0,61.6,57.4,53.8,83,59,38,30.17,30.08,5,2,9,0.00
2013-7-13,84.3,74.5,63.8,65.7,61.8,54.9,86,66,44,30.17,30.09,7,3,9,0.00
2013-7-14,88.8,78.4,67.3,72.9,68.5,64.5,91,73,53,30.20,30.12,6,3,10,0.00
2013-7-15,88.9,80.7,72.6,78.5,74.0,70.4,93,81,62,30.28,30.20,9,3,10,0.00
2013-7-16,90.4,81.7,73.8,77.9,74.6,72.3,96,80,58,30.34,30.26,5,2,7,0.00
2013-7-17,94.6,83.6,73.3,77.5,74.9,71.5,95,77,53,30.35,30.22,4,1,4,0.00
2013-7-18,92.1,84.0,75.1,78.8,75.7,72.4,94,77,60,30.24,30.02,6,2,10,0.00
2013-7-19,93.6,84.2,75.6,77.2,74.1,71.8,91,73,51,30.02,29.84,11,4,15,0.00
2013-7-20,87.5,80.1,72.0,73.0,68.3,63.4,87,69,46,29.95,29.86,6,3,7,0.00
2013-7-21,80.4,74.3,67.7,74.4,70.0,65.0,96,87,77,29.96,29.87,5,2,6,0.06
2013-7-22,88.4,76.6,66.3,75.4,70.7,65.1,97,83,61,29.90,29.79,6,2,10,0.14
2013-7-23,80.8,71.7,65.2,70.9,65.7,61.4,96,82,62,29.97,29.80,6,2,10,0.01
2013-7-24,76.5,67.5,59.0,61.7,57.0,53.4,94,71,47,30.08,29.97,9,3,14,0.00
2013-7-25,81.9,69.7,58.1,62.9,58.3,52.6,85,68,47,30.14,30.07,4,2,6,0.00
2013-7-26,73.0,66.3,59.9,69.9,63.3,57.8,96,90,79,30.08,29.94,7,2,10,0.68
2013-7-27,67.1,61.1,53.9,58.2,53.9,48.8,96,79,55,30.00,29.95,7,2,10,0.00
2013-7-28,72.7,62.1,51.3,57.2,53.2,48.6,92,74,56,30.08,29.96,6,2,13,0.00
2013-7-29,77.4,66.4,52.9,61.1,56.4,50.7,94,72,47,30.18,30.08,4,1,6,0.00
2013-7-30,68.7,66.1,63.0,67.8,63.7,58.0,97,92,74,30.17,30.05,5,2,6,0.75
2013-7-31,77.3,70.3,67.3,69.8,67.7,65.5,97,92,76,30.07,30.01,3,1,7,0.00
2013-8-1,83.2,72.9,63.1,67.0,64.0,61.7,97,76,49,30.08,29.98,3,1,5,0.00
2013-8-2,83.6,74.5,66.4,73.5,68.3,62.3,94,82,60,30.00,29.90,8,4,11,0.08
2013-8-3,80.8,72.4,65.5,68.7,62.6,58.9,94,73,48,30.15,29.99,5,2,9,0.00
2013-8-4,81.4,70.8,60.6,62.1,58.7,54.4,91,68,44,30.21,30.12,5,2,6,0.00
2013-8-5,76.4,68.6,60.2,69.0,63.3,57.3,94,83,71,30.13,29.90,7,3,9,0.02
2013-8-6,85.7,74.5,66.1,77.0,70.8,64.9,97,89,66,29.94,29.84,6,3,8,0.00
2013-8-7,86.8,77.4,70.8,78.2,72.4,67.0,97,85,62,29.97,29.83,5,2,7,0.00
2013-8-8,79.9,72.6,65.0,69.2,66.2,61.3,95,81,66,30.02,29.95,8,4,13,0.00
2013-8-9,81.6,72.2,61.1,70.7,64.0,56.5,92,77,57,30.09,30.01,3,1,4,0.00
2013-8-10,80.4,71.5,62.4,68.6,61.8,57.9,91,73,48,30.17,30.09,4,2,11,0.00
2013-8-11,83.4,71.4,60.4,68.9,62.6,57.0,92,75,55,30.17,30.07,5,1,10,0.00
2013-8-12,82.4,73.0,64.8,73.1,67.9,62.4,93,84,70,30.09,29.93,6,2,8,0.01
2013-8-13,73.5,66.5,57.4,64.4,57.2,50.9,93,74,46,30.18,29.98,10,3,12,0.00
2013-8-14,57.3,54.5,52.2,52.2,50.8,48.9,93,87,82,30.19,30.18,0,0,0,0.00
2013-8-15,67.5,65.9,64.4,58.6,57.5,55.7,80,74,71,30.17,30.13,0,0,0,0.00
2013-8-16,79.2,68.5,61.1,59.7,57.3,55.0,86,69,44,30.20,30.15,6,2,7,0.00
2013-8-17,77.8,69.1,59.0,62.3,58.6,55.4,90,70,52,30.25,30.17,8,3,10,0.00
2013-8-18,84.1,70.8,59.0,65.4,60.2,56.1,91,71,46,30.22,30.13,6,2,9,0.00
2013-8-19,83.8,73.5,63.7,69.3,65.2,60.2,93,76,54,30.16,30.07,5,1,6,0.00
2013-8-20,85.3,74.5,64.2,71.4,67.2,62.4,94,79,56,30.14,30.06,5,2,8,0.00
2013-8-21,86.8,76.1,65.6,73.3,68.5,64.0,95,79,54,30.13,30.03,8,3,12,0.00
2013-8-22,80.7,74.8,69.7,73.3,69.6,67.1,94,84,74,30.14,30.05,13,3,15,0.00
2013-8-23,83.2,73.6,65.1,70.0,66.6,62.4,97,80,56,30.18,30.11,8,4,10,0.00
2013-8-24,86.7,74.8,62.9,72.5,66.6,59.6,91,77,59,30.26,30.17,5,3,7,0.00
2013-8-25,88.3,76.0,64.9,73.0,68.0,62.8,93,77,54,30.29,30.18,8,3,13,0.00
2013-8-26,90.7,78.0,65.2,76.4,70.7,62.8,94,80,57,30.21,30.05,7,3,11,0.00
2013-8-27,93.4,81.1,72.2,76.7,71.8,66.2,95,75,50,30.07,29.94,9,4,11,0.00
2013-8-28,94.1,83.0,73.5,79.3,72.6,65.6,91,72,57,30.03,29.95,7,2,11,0.00
2013-8-29,86.2,77.8,71.1,76.3,72.6,69.4,95,85,71,30.09,30.00,6,3,8,0.00
2013-8-30,98.3,82.8,70.5,79.1,73.5,65.7,96,76,46,30.00,29.82,15,3,22,0.00
2013-8-31,91.5,79.2,70.3,79.4,71.5,64.0,93,78,66,29.85,29.77,6,2,7,0.00
2013-9-1,89.8,75.9,65.0,76.0,68.8,63.1,97,81,50,29.88,29.78,6,1,10,0.00
2013-9-2,80.5,70.6,61.8,66.1,61.2,56.7,92,74,51,30.02,29.88,5,2,8,0.00
2013-9-3,79.1,66.0,55.8,62.9,58.3,54.1,94,78,50,30.13,30.02,5,1,7,0.00
2013-9-4,86.3,71.3,57.0,64.1,58.7,54.5,96,68,35,30.18,30.08,3,1,4,0.00
2013-9-5,88.0,74.3,62.3,70.6,63.9,58.7,92,71,50,30.23,30.15,6,2,7,0.00
2013-9-6,87.1,73.8,61.8,68.8,62.8,56.1,85,70,49,30.21,30.05,6,3,9,0.00
2013-9-7,86.5,74.8,62.3,72.8,67.0,60.6,96,78,54,30.06,29.93,9,2,13,0.01
2013-9-8,86.6,77.2,70.9,73.7,70.7,68.1,94,81,63,30.01,29.91,8,3,10,0.01
2013-9-9,95.8,81.5,71.4,77.8,73.2,69.5,97,78,49,29.96,29.87,9,4,10,0.00
2013-9-10,94.3,81.8,70.4,73.1,69.4,65.8,89,68,43,30.07,29.96,11,4,16,0.00
2013-9-11,92.5,80.0,72.1,72.2,69.0,65.6,85,71,49,30.11,30.04,4,2,9,0.00
2013-9-12,82.3,73.1,61.0,70.3,60.9,47.1,97,70,31,30.13,30.02,7,2,12,0.33
2013-9-13,70.9,61.0,53.5,52.1,45.5,38.0,90,60,32,30.22,30.11,8,4,11,0.00
2013-9-14,73.5,60.1,47.2,49.6,46.2,41.4,91,63,33,30.21,30.05,5,2,7,0.00
2013-9-15,65.9,59.3,52.7,61.8,54.9,46.8,95,86,70,30.18,30.00,8,3,9,0.16
2013-9-16,69.6,60.8,53.9,56.4,53.7,48.4,95,79,55,30.35,30.18,9,5,12,0.00
2013-9-17,74.4,62.1,50.8,59.9,54.8,48.8,94,78,56,30.32,30.11,7,3,9,0.00
2013-9-18,86.2,73.3,61.7,71.9,65.5,56.7,90,77,60,30.11,29.93,10,5,14,0.00
2013-9-19,90.1,78.6,67.6,74.1,70.2,65.3,95,77,52,29.97,29.81,12,6,16,0.51
2013-9-20,70.9,66.1,55.1,67.3,60.9,51.8,97,84,55,29.93,29.85,6,3,9,0.15
2013-9-21,70.4,59.2,49.8,53.8,50.5,48.4,95,75,46,29.97,29.90,5,2,8,0.00
2013-9-22,71.1,59.8,47.1,53.7,49.3,44.8,94,71,44,30.07,29.97,6,2,7,0.00
2013-9-23,74.8,61.0,47.3,52.5,48.8,44.5,91,67,40,30.09,29.98,8,4,12,0.00
2013-9-24,75.8,64.0,51.0,58.8,53.2,47.8,90,69,50,30.01,29.88,9,4,10,0.00
2013-9-25,78.9,66.4,55.0,60.5,55.6,50.9,87,69,51,29.95,29.89,8,4,11,0.00
2013-9-26,82.3,68.5,56.4,64.2,56.6,51.0,86,67,46,30.07,29.95,6,3,7,0.00
2013-9-27,83.4,69.3,56.4,60.2,53.5,49.8,83,59,32,30.15,30.03,6,3,7,0.00
2013-9-28,82.9,68.6,57.8,67.8,60.9,54.6,96,78,53,30.06,29.92,13,4,20,1.03
2013-9-29,70.4,59.5,50.3,56.7,49.9,44.2,97,74,39,30.10,30.01,7,2,10,0.02
2013-9-30,78.3,63.1,50.1,59.3,53.1,47.5,92,73,40,30.02,29.88,7,3,11,0.00
2013-10-1,79.3,68.4,58.8,68.1,64.3,57.7,97,88,66,30.01,29.92,11,5,14,0.00
2013-10-2,81.9,70.3,62.9,69.7,65.9,62.0,97,87,60,30.09,29.98,5,2,9,0.00
2013-10-3,81.8,70.7,64.6,72.0,67.3,63.1,97,90,68,29.98,29.85,10,4,13,0.73
2013-10-4,86.0,73.8,65.2,73.4,68.5,63.1,97,85,58,29.98,29.91,7,3,10,0.00
2013-10-5,76.1,69.3,56.5,71.6,66.5,52.8,97,91,76,29.95,29.81,9,3,11,0.05
2013-10-6,56.3,49.8,45.9,52.8,44.7,40.3,96,84,61,29.86,29.78,9,3,13,0.09
2013-10-7,70.9,56.4,44.6,50.6,47.6,43.4,97,76,42,30.11,29.83,5,2,11,0.01
2013-10-8,77.7,61.5,46.8,53.6,49.1,45.2,95,68,34,30.21,30.11,7,2,11,0.00
2013-10-9,74.2,61.6,50.2,51.4,48.5,46.4,88,65,38,30.23,30.12,6,2,7,0.00
2013-10-10,78.3,66.9,52.8,59.4,55.6,47.6,92,68,50,30.17,30.03,8,2,2,0.00
2013-10-11,79.2,67.0,56.3,61.9,57.2,54.2,95,73,46,30.06,29.91,10,4,13,0.00
2013-10-12,72.8,63.8,54.0,62.9,53.4,41.3,94,71,35,30.23,29.95,6,3,10,0.03
2013-10-13,67.3,55.3,45.5,45.9,38.6,32.2,79,56,28,30.42,30.23,5,2,6,0.00
2013-10-14,65.9,54.3,44.7,46.3,41.3,36.2,88,64,34,30.40,30.08,9,4,12,0.00
2013-10-15,71.5,60.0,46.6,62.0,52.7,42.0,95,77,62,30.08,29.82,11,5,16,0.00
2013-10-16,53.4,50.4,44.9,45.6,44.0,41.2,88,79,73,30.00,29.93,5,2,9,0.00
2013-10-17,62.2,51.7,46.3,48.3,43.3,38.4,96,75,43,29.99,29.86,6,2,13,0.15
2013-10-18,55.1,46.8,42.2,42.5,40.4,38.2,94,79,55,30.03,29.89,5,2,9,0.00
2013-10-19,56.2,47.2,37.4,41.2,38.5,36.1,95,74,48,29.99,29.86,10,4,17,0.01
2013-10-20,69.8,53.2,38.7,46.5,42.3,36.8,93,69,39,29.90,29.75,12,4,16,0.00
2013-10-21,57.5,46.3,36.7,48.4,35.1,25.0,89,66,42,30.03,29.86,6,3,14,0.00
2013-10-22,42.3,36.7,32.3,41.0,34.3,26.5,96,91,76,30.03,29.85,8,2,9,0.28
2013-10-23,44.5,38.3,31.9,36.2,32.5,28.3,96,81,53,30.10,29.98,4,2,9,0.00
2013-10-24,42.5,36.5,28.1,35.9,27.2,23.6,93,70,49,30.37,30.08,7,3,13,0.00
2013-10-25,53.9,39.3,25.6,35.3,28.4,23.3,93,68,35,30.45,30.14,11,4,17,0.00
2013-10-26,55.8,45.7,36.4,38.6,32.5,29.1,75,61,38,30.14,29.97,12,5,15,0.00
2013-10-27,57.3,43.4,29.5,35.3,31.3,26.1,90,65,39,30.13,29.99,9,3,13,0.00
2013-10-28,61.3,48.4,37.0,42.4,35.6,30.5,85,63,40,30.32,30.07,9,3,11,0.00
2013-10-29,56.3,48.1,39.7,51.6,43.1,37.8,96,84,61,30.32,30.11,8,5,10,0.00
2013-10-30,64.3,57.8,52.6,63.4,56.9,51.5,97,97,96,30.11,29.79,18,5,18,1.00
2013-10-31,64.0,56.5,44.6,63.1,55.7,43.5,97,97,96,29.79,29.31,13,5,20,1.43
2013-11-1,52.7,47.0,41.3,45.9,44.4,40.5,97,91,74,29.81,29.53,11,3,13,0.03
2013-11-2,51.8,43.6,37.4,41.3,37.1,32.6,98,79,55,30.17,29.80,7,2,12,0.00
2013-11-3,53.7,43.7,32.1,40.0,35.5,30.0,94,74,49,30.30,30.17,11,5,15,0.00
2013-11-4,57.1,51.2,45.9,46.8,42.5,37.6,81,72,61,30.20,30.09,19,10,24,0.00
2013-11-5,55.1,52.8,51.0,53.1,50.4,46.6,96,92,81,30.26,29.96,14,8,18,0.15
2013-11-6,57.4,46.0,33.8,56.3,43.6,30.3,96,91,81,30.24,29.85,13,6,17,0.71
2013-11-7,48.6,36.6,28.0,40.2,31.9,26.0,94,83,64,30.33,30.24,12,3,16,0.00
2013-11-8,48.3,40.5,27.8,38.2,33.1,25.2,95,76,56,30.34,29.98,18,7,22,0.00
2013-11-9,61.8,52.0,44.3,43.1,39.7,35.8,79,64,44,30.22,29.94,15,8,17,0.00
2013-11-10,50.1,40.7,31.6,36.1,32.3,28.2,88,73,52,30.43,30.22,6,3,10,0.00
2013-11-11,51.8,39.7,24.0,40.0,33.8,21.0,96,80,62,30.56,30.13,9,5,11,0.00
2013-11-12,32.3,23.4,17.9,23.9,18.5,14.9,90,82,63,30.76,30.56,6,2,9,0.00
2013-11-13,41.4,28.6,17.0,24.7,19.6,14.4,91,71,40,30.66,30.21,16,7,25,0.00
2013-11-14,52.0,39.7,27.7,29.5,25.7,21.7,80,59,35,30.21,29.99,14,8,19,0.00
2013-11-15,48.6,41.2,33.9,40.7,34.4,28.4,89,77,64,30.01,29.90,11,6,12,0.00
2013-11-16,59.2,53.5,41.1,56.6,51.0,38.1,93,91,86,29.91,29.58,24,14,26,0.00
2013-11-17,69.0,56.0,43.5,65.2,52.3,40.2,97,87,77,29.89,29.23,26,10,34,0.61
2013-11-18,46.6,40.3,31.0,40.5,33.7,27.3,92,78,58,30.30,29.89,9,4,17,0.00
2013-11-19,45.7,35.1,26.0,30.7,28.2,23.6,93,77,50,30.37,30.24,8,4,16,0.00
2013-11-20,42.0,37.4,32.0,39.6,33.4,28.6,95,86,75,30.25,30.04,15,8,20,0.05
2013-11-21,48.4,45.1,41.7,46.7,43.4,39.4,97,94,89,30.24,30.08,7,3,9,0.14
2013-11-22,41.7,35.1,24.8,40.9,32.5,22.8,97,90,78,30.54,30.24,7,4,14,0.04
2013-11-23,24.5,21.3,13.8,22.5,14.6,8.6,94,75,57,30.75,30.51,10,5,15,0.00
2013-11-24,28.3,18.4,8.4,15.8,9.7,1.1,89,70,31,30.76,30.39,9,4,12,0.00
2013-11-25,34.0,28.8,21.9,26.2,20.8,15.6,83,72,61,30.39,30.12,12,8,16,0.00
2013-11-26,36.0,27.4,17.9,28.1,19.8,9.2,88,73,54,30.24,30.07,12,6,19,0.00
2013-11-27,28.6,19.5,12.6,14.0,10.2,6.6,78,67,49,30.32,30.23,7,4,11,0.00
2013-11-28,38.7,27.1,18.1,22.8,17.9,12.0,80,69,52,30.51,30.17,12,5,14,0.00
2013-11-29,37.5,28.0,17.3,25.3,20.7,14.6,92,75,56,30.61,30.37,10,4,13,0.00
2013-11-30,52.0,38.5,27.2,36.4,31.3,24.7,90,76,54,30.37,30.07,11,6,15,0.00
2013-12-1,48.9,39.4,32.0,35.0,32.4,29.7,92,77,57,30.13,29.96,6,2,7,0.00
2013-12-2,45.2,38.9,32.7,39.1,35.1,30.6,95,86,74,29.96,29.67,9,5,12,0.00
2013-12-3,50.6,45.0,38.3,49.8,44.1,37.3,97,97,94,29.70,29.62,11,5,16,0.00
2013-12-4,54.7,47.9,33.1,53.5,46.8,30.5,98,96,89,29.83,29.51,12,6,16,0.01
2013-12-5,33.0,23.5,19.3,30.7,17.7,12.7,91,78,69,30.29,29.82,8,6,15,0.00
2013-12-6,19.6,15.7,10.7,13.0,8.8,6.0,81,74,61,30.59,30.28,8,5,10,0.00
2013-12-7,20.6,12.4,5.7,7.2,5.0,2.4,86,73,50,30.72,30.54,5,3,10,0.00
2013-12-8,25.1,20.4,12.3,23.9,16.9,6.7,95,86,74,30.54,30.00,14,6,17,0.00
2013-12-9,23.7,15.4,3.0,21.7,10.4,-1.7,92,81,70,30.29,30.01,10,4,14,0.00
2013-12-10,25.6,16.0,2.2,15.8,7.8,-2.1,86,70,54,30.31,30.08,15,6,17,0.00
2013-12-11,21.6,14.8,1.8,17.4,7.3,-4.3,87,72,51,30.63,30.24,9,4,14,0.00
2013-12-12,31.5,18.1,0.4,19.3,10.3,-4.4,84,72,60,30.59,30.22,13,5,16,0.00
2013-12-13,38.7,27.7,17.7,30.0,22.7,13.4,96,82,61,30.22,30.02,8,4,10,0.00
2013-12-14,31.8,28.4,19.2,30.8,26.9,16.2,96,94,88,30.07,29.92,7,3,10,0.00
2013-12-15,18.9,15.0,8.6,15.7,11.2,6.3,91,85,74,30.13,30.05,6,2,9,0.00
2013-12-16,21.4,17.8,12.6,20.2,15.4,10.2,95,90,85,30.12,30.01,7,4,10,0.00
2013-12-17,36.1,26.2,20.0,30.3,22.2,14.7,95,85,71,30.21,30.06,8,4,11,0.00
2013-12-18,35.6,26.6,13.6,30.9,20.8,10.5,88,79,62,30.21,29.86,19,8,22,0.00
2013-12-19,41.8,39.2,34.2,40.7,36.4,30.9,96,90,81,29.90,29.75,12,7,12,0.01
2013-12-20,45.4,36.4,29.4,44.6,35.6,28.7,97,97,96,29.86,29.72,8,4,9,0.12
2013-12-21,33.2,29.9,27.8,32.2,29.0,26.8,97,96,96,29.88,29.60,7,3,9,0.02
2013-12-22,33.2,27.6,17.9,32.3,25.9,15.5,97,94,90,30.23,29.61,5,3,7,0.00
2013-12-23,18.5,10.3,3.2,16.1,6.5,-2.5,91,84,76,30.53,30.23,6,3,9,0.00
2013-12-24,20.3,8.9,-2.7,15.2,4.3,-6.8,88,81,75,30.59,30.32,13,5,16,0.00
2013-12-25,29.2,25.7,20.3,27.3,23.1,15.1,95,90,80,30.32,30.17,12,6,14,0.00
2013-12-26,37.5,29.4,18.0,33.1,26.1,16.3,93,88,80,30.32,30.17,12,5,14,0.05
2013-12-27,44.6,34.8,26.5,36.3,31.1,25.5,96,87,69,30.32,30.15,10,5,13,0.05
2013-12-28,52.3,40.5,33.5,39.1,34.4,30.8,91,79,57,30.15,29.87,12,7,14,0.00
2013-12-29,35.9,23.4,4.1,32.4,20.2,-1.5,95,88,77,30.27,29.82,11,7,16,0.00
2013-12-30,16.1,7.7,-0.3,11.0,2.2,-5.0,86,78,62,30.35,30.19,6,2,9,0.00
2013-12-31,22.0,16.3,8.9,16.0,11.9,6.3,90,83,74,30.38,30.19,11,5,14,0.00
2014-1-1,23.1,19.0,13.3,20.3,16.4,10.9,93,89,84,30.21,30.13,11,8,15,0.00
2014-1-2,15.3,11.3,2.3,11.0,7.6,-0.7,90,85,78,30.45,30.15,9,5,15,0.00